Regional Weather Roundup
Issued by NWS

Home | Current Version | Previous Version | Text Only | Print | Product List | Glossary On
Versions: 1 2 3 4 5 6 7 8 9 10 11 12 13 14 15 16 17 18 19 20 21 22 23 24 25 26 27 28 29 30 31 32 33 34 35 36 37 38 39 40 41 42 43 44 45 46 47 48 49 50
000
ASUS43 KLSX 171757
RWRMO

WEATHER SUMMARY FOR MISSOURI
NATIONAL WEATHER SERVICE SPRINGFIELD MO
1200 PM CST SUN DEC 17 2017

NOTE: "FAIR" INDICATES FEW OR NO CLOUDS BELOW 12,000 FEET WITH NO
       SIGNIFICANT WEATHER AND/OR OBSTRUCTIONS TO VISIBILITY.
       CURRENT SKY AND/OR WEATHER CONDITIONS ARE NOT AVAILABLE FOR
       CHILLICOTHE AND FARMINGTON.

MOZ001>031-035>038-043-044-053-054-171900-
...NORTHERN AND WESTERN MISSOURI...

CITY           SKY/WX    TMP DP  RH WIND       PRES   REMARKS
KANSAS CTY INT CLOUDY    45  44  97 W5        29.99F FOG
6HR MIN TEMP:  42; 6HR MAX TEMP:  45; 6HR PCP:  0.07;

LEE`S SUMMIT   CLOUDY    45  45 100 SW7       30.01F
6HR MIN TEMP:  43; 6HR MAX TEMP:  45; 6HR PCP:  0.15;

ST JOSEPH      CLOUDY    46  46 100 S6        29.99F
6HR MIN TEMP:  40; 6HR MAX TEMP:  46; 6HR PCP:  0.09;

CHILLICOTHE      N/A     46  43  89 SW3       30.01F
6HR MIN TEMP:  42; 6HR MAX TEMP:  47; 6HR PCP:  0.02;


$$
MOZ066>068-077>081-088>096-101>105-171900-
...SOUTHWEST MISSOURI...

CITY           SKY/WX    TMP DP  RH WIND       PRES   REMARKS
SPRINGFIELD    CLOUDY    46  45  96 SW8       30.04F FOG
6HR MIN TEMP:  42; 6HR MAX TEMP:  46; 6HR PCP:  0.09;

JOPLIN         CLOUDY    45  45 100 SW9       30.06F
6HR MIN TEMP:  42; 6HR MAX TEMP:  46; 6HR PCP:  0.02;

BRANSON        FOG       45  45 100 CALM      30.07F VSB 1

$$
MOZ032>034-039>042-045>050-055>058-069>072-171900-
...CENTRAL MISSOURI...

CITY           SKY/WX    TMP DP  RH WIND       PRES   REMARKS
COLUMBIA       NOT AVBL
JEFFERSON CITY CLOUDY    48  41  76 SW5       30.05F
6HR MIN TEMP:  42; 6HR MAX TEMP:  48; 6HR PCP:  0.01;

ROLLA          CLOUDY    45  41  86 S9        30.05F
6HR MIN TEMP:  43; 6HR MAX TEMP:  46; 6HR PCP: TRACE;

SEDALIA        CLOUDY    46  45  96 S8        30.04F
6HR MIN TEMP:  43; 6HR MAX TEMP:  46; 6HR PCP:  0.07;

WARRENSBURG    CLOUDY    43  41  93 S9        30.02F

$$
MOZ051-052-059>065-171900-
...EAST CENTRAL MISSOURI...

CITY           SKY/WX    TMP DP  RH WIND       PRES   REMARKS
ST LOUIS INTL  CLOUDY    51  34  52 CALM      30.06F
6HR MIN TEMP:  45; 6HR MAX TEMP:  51; 6HR PCP: TRACE;


$$
MOZ072>076-082>087-097>100-106>115-171900-
...SOUTH CENTRAL AND SOUTHEAST MISSOURI...

CITY           SKY/WX    TMP DP  RH WIND       PRES   REMARKS
CAPE GIRARDEAU CLOUDY    45  40  82 S7        30.12F
6HR MIN TEMP:  40; 6HR MAX TEMP:  45; 6HR PCP:  0.04;

FARMINGTON     LGT RAIN  45  43  93 S10       30.09F FOG
POPLAR BLUFF   CLOUDY    45  43  93 SW6       30.11F
6HR MIN TEMP:  41; 6HR MAX TEMP:  46; 6HR PCP:  0.06;

WEST PLAINS    CLOUDY    43  42  97 S6        30.07F
6HR MIN TEMP:  40; 6HR MAX TEMP:  44; 6HR PCP:  0.08;


$$



USA.gov is the U.S. government's official web portal to all federal, state and local government web resources and services.